Regional Weather Roundup
Issued by NWS Northern Indiana

Home | Current Version | Previous Version | Text Only | Print | Product List | Glossary Off
Versions: 1 2 3 4 5 6 7 8 9 10 11 12 13 14 15 16 17 18 19 20 21 22 23 24 25 26 27 28 29 30 31 32 33 34 35 36 37 38 39 40 41 42 43 44 45 46 47 48 49 50

000
ASUS43 KIWX 260910
RWRIWX

KIWX WEATHER ROUNDUP
NATIONAL WEATHER SERVICE NORTHERN INDIANA
500 AM EDT FRI AUG 26 2016

NOTE: "FAIR" INDICATES FEW OR NO CLOUDS BELOW 12,000 FEET WITH NO
SIGNIFICANT WEATHER AND/OR OBSTRUCTIONS TO VISIBILITY.

* THESE STATIONS ARE NOT UNDER NWS QUALITY CONTROL. THEY ALSO MAY NOT
  REPORT WEATHER SUCH AS PRECIPITATION OR FOG.

INZ001>027-261000-
NORTHERN INDIANA

CITY           SKY/WX    TMP DP  RH WIND       PRES   REMARKS
GARY*          FAIR      66  66 100 N5        30.11R FOG
VALPARAISO     FAIR      68  65  90 CALM      30.11S
MICHIGAN CITY* FAIR      63  63 100 MISG      30.11S
LAPORTE*       FAIR     N/A N/A N/A CALM      30.11S
KNOX*            N/A     64  57  77 CALM      30.09F VSB 1/4
SOUTH BEND     FAIR      64  63  96 CALM      30.11F
GOSHEN         FOG       65  63  93 CALM      30.10F VSB 1/4
MONTICELLO*    FAIR      68  64  88 CALM      30.08F FOG
LOGANSPORT*    FOG       66  66 100 SE3       30.10S VSB 1/2
ROCHESTER*     FOG       70  70 100 CALM      30.11R VSB 1/2
WARSAW*        FOG       64  64 100 CALM      30.11S VSB 1/4
ANGOLA*        PTCLDY    63  52  67 CALM      30.11F
FORT WAYNE     FOG       67  66  97 CALM      30.10F VSB 1
HUNTINGTON*    FOG      N/A N/A N/A CALM      30.10S VSB 1/2
PERU/GRISSOM   MOCLDY    69  69 100 CALM      30.09S
MARION*        FOG       66  66 100 CALM      30.11S VSB 1/2

$$
INZ028>050-261000-
CENTRAL INDIANA

CITY           SKY/WX    TMP DP  RH WIND       PRES   REMARKS
LAFAYETTE      MOCLDY    71  71 100 CALM      30.09R
MUNCIE*        FAIR      72  69  90 CALM      30.10F
INDIANAPOLIS   MOCLDY    76  72  87 NE7       30.08F

$$
MIZ043>046-050>051-056>058-064>065-071>073-077>080-261000-
SOUTHWEST LOWER MICHIGAN

CITY           SKY/WX    TMP DP  RH WIND       PRES   REMARKS
BATTLE CREEK   FAIR      60  60 100 S6        30.12R
BENTON HARBOR  FAIR      63  61  93 E3        30.10S
COLDWATER*       N/A     60  60 100 CALM      30.11F FOG
HILLSDALE*     FAIR      58  56  94 CALM      30.12R
HOLLAND        FAIR      62  61  96 CALM      30.10R
GRAND RAPIDS   FAIR      64  61  90 SW5       30.10R
KALAMAZOO      FAIR      63  59  87 CALM      30.11R
STURGIS*       CLOUDY    62  61  97 CALM      30.11S FOG
THREE RIVERS*  FAIR      62  62  99 CALM      30.11F

$$
OHZ001>008-015>018-024>025-261000-
NORTHWEST OHIO

CITY           SKY/WX    TMP DP  RH WIND       PRES   REMARKS
WAUSEON*       FAIR      63  61  94 CALM      30.11S
DEFIANCE       FAIR      68  64  87 CALM      30.11S
FINDLAY        FAIR      72  66  81 NW3       30.10R
TOLEDO EXPRESS FAIR      66  64  93 NW3       30.10R
TOLEDO METCALF FAIR      68  63  84 NW3       30.11R
LIMA           FAIR      69  69 100 CALM      30.12R

$$
AND FOR LAKE MICHIGAN COASTAL AND OPEN LAKE BUOY OBSERVATIONS

STATION/POSITION TEMP    WIND        PRES    VSBY  WAVE
                 AIR SEA DIR/SP/G                  HT/PER
                 (F)     (DEG/KT/KT) (MB)    (MI)  (FT/S)
CALUMET HARBOR    69     230/  1/  2 1018.7F
MICHIGAN CITY     72     280/  5/  6   N/A
BURNS HARBOR      71     300/  4/  7 1019.6S
SAINT JOSEPH      74     350/  8/ 10 1020.0F
SOUTH LAKE BUOY   72 74  330/ 14/ 16 1018.3S         2/ 3
4 MI NW BRIDGMAN  74 75  350/  6/ 10 1018.7F         1/ 2
MICHIGAN CITY     74 74  350/  8/ 10   N/A           1/ 4

$$
&&




USA.gov is the U.S. government's official web portal to all federal, state and local government web resources and services.